Home > Weather > Brattleboro > Past weeks

Flag for USA Past Weather in Brattleboro, Vermont, USA — Yesterday and Last 2 Weeks

Now
74 °F

Sunny.


Feels Like: 76 °F
Forecast: 62 / 90 °F
Wind: No wind

Location: Keene / Dillant

Current Time: Jul 26, 2016 at 9:23:28 PM

Latest Report: Jul 26, 2016 at 8:56 PM


Visibility: 10 mi

Pressure: 29.93 "Hg

Humidity: 64%

Dew Point: 61 °F

Location of BrattleboroLocation

Past Weather in Brattleboro — Graph

°F

Brattleboro Temperature Yesterday

Maximum temperature yesterday: 93 °F (at 4:56 PM)
Minimum temperature yesterday: 54 °F (at 4:56 AM)
Average temperature yesterday: 68 °F

High & Low Weather Summary for the Past Weeks

 TemperatureHumidityPressure
High94 °F (Jul 22, 2:56 PM)100% (Jul 12, 4:35 AM)30.42 "Hg (Jul 12, 4:35 AM)
Low48 °F (Jul 20, 3:35 AM)26% (Jul 12, 2:35 PM)29.75 "Hg (Jul 14, 5:55 PM)
Average72 °F71%30.08 "Hg
* Reported Jul 11 7:15 PM — Jul 26 7:56 PM, Brattleboro, Weather by CustomWeather, © 2016

Note: Actual official high and low records may vary slightly from our data, if they occured in-between our weather recording intervals... More about our weather records

Advertising

Brattleboro Weather History for the Previous 24 Hours

Scroll right to see more
 ConditionsComfort  
Time TempWeatherWind HumidityBarometerVisibility
7:56 PM
Tue, Jul 26
81 °FSunny.5 mph47%29.92 "Hg10 mi
6:56 PM84 °FPassing clouds.8 mph48%29.90 "Hg10 mi
5:56 PM86 °FPassing clouds.7 mph45%29.89 "Hg10 mi
4:56 PM85 °FPassing clouds.8 mph42%29.88 "Hg10 mi
3:56 PM86 °FPassing clouds.8 mph40%29.88 "Hg10 mi
2:56 PM87 °FScattered clouds.8 mph42%29.88 "Hg10 mi
1:56 PM86 °FPassing clouds.12 mph43%29.88 "Hg10 mi
12:56 PM84 °FOvercast.8 mph46%29.89 "Hg10 mi
11:56 AM84 °FPartly sunny.13 mph46%29.88 "Hg10 mi
10:56 AM83 °FPassing clouds.10 mph46%29.88 "Hg10 mi
9:56 AM81 °FPassing clouds.10 mph49%29.88 "Hg10 mi
8:56 AM81 °FPassing clouds.12 mph54%29.88 "Hg10 mi
7:56 AM77 °FSunny.6 mph69%29.88 "Hg10 mi
6:56 AM68 °FSunny.N/A90%N/A10 mi
5:56 AM64 °FClear.No wind97%29.88 "Hg7 mi
4:56 AM67 °FClear.No wind97%29.86 "Hg10 mi
3:56 AM66 °FClear.N/A96%29.85 "Hg10 mi
2:56 AM69 °FClear.6 mph90%29.83 "Hg10 mi
1:56 AM70 °FClear.5 mph90%29.83 "Hg10 mi
12:56 AM71 °FClear.3 mph90%N/A10 mi
11:56 PM
Mon, Jul 25
75 °FClear.7 mph82%29.85 "Hg10 mi
10:56 PM77 °FPassing clouds.6 mph77%29.85 "Hg10 mi
9:56 PM78 °FPassing clouds.3 mph74%29.86 "Hg10 mi
Weather by CustomWeather, © 2016

See weather overviewHow to use our weather pages